This demonstration page uses our WeatherBlox Daily Observations layout. Learn more.

40.92501, -98.34201

Hourly Observations for August 19, 2019

Temp ( °F °C ) Dew Point ( °F °C ) Humidity (%) Winds ( mph kmh ) Pressure ( in mb ) Visibility ( mi km ) Precip ( " mm )
12:53 am 00:53 Clear 64 17.8 61 16.1 90 90 ESE 5 7 29.94 1014 10 16.09344 0 0
1:53 am 01:53 Clear 62 16.7 60 15.6 93 93 ENE 3 6 29.97 1015 8 12.874752 0 0
2:53 am 02:53 Clear 62 16.7 60 15.6 93 93 E 5 7 29.97 1015 8 12.874752 0 0
3:53 am 03:53 Clear with Mist and Fog 62 16.7 60 15.6 93 93 Calm 29.97 1015 6 9.656064 0 0
4:53 am 04:53 Clear with Mist and Fog 62 16.7 60 15.6 93 93 ESE 3 6 29.97 1015 4 6.437376 0 0
5:53 am 05:53 Clear with Mist and Fog 63 17.2 61 16.1 93 93 ESE 5 7 29.97 1015 6 9.656064 0 0
6:53 am 06:53 Sunny with Mist and Fog 64 17.8 62 16.7 93 93 ESE 5 7 29.97 1015 4 6.437376 0 0
7:53 am 07:53 Sunny with Mist and Fog 66 18.9 63 17.2 90 90 SE 6 9 29.97 1015 4 6.437376 0 0
8:53 am 08:53 Hazy 70 21.1 65 18.3 84 84 SE 7 11 29.97 1015 6 9.656064 0 0
9:53 am 09:53 Sunny 73 22.8 67 19.4 81 81 ESE 10 17 29.97 1015 10 16.09344 0 0
10:53 am 10:53 Sunny 77 25 69 20.6 77 77 SE 12 19 29.97 1015 10 16.09344 0 0
11:53 am 11:53 Sunny 81 27.2 71 21.7 72 72 SE 12 19 29.94 1014 10 16.09344 0 0
12:53 pm 12:53 Partly Cloudy 82 27.8 73 22.8 74 74 SE 9 15 29.94 1014 10 16.09344 0 0
1:53 pm 13:53 Cloudy 84 28.9 74 23.3 72 72 SSE 14 22 29.94 1014 10 16.09344 0 0
2:53 pm 14:53 Cloudy 84 28.9 75 23.9 74 74 SSE 14 22 29.91 1013 10 16.09344 0 0
3:48 pm 15:48 Partly Cloudy 84 29 75 24 74 74 SE 10 17 29.83 1010 10 16.09344 0 0
3:53 pm 15:53 Partly Cloudy 84 28.9 76 24.4 77 77 SSE 12 19 29.88 1012 10 16.09344 0 0
4:53 pm 16:53 Partly Cloudy 87 30.6 76 24.4 70 70 SSE 12 19 29.88 1012 10 16.09344 0 0
5:34 pm 17:34 Mostly Cloudy 87 30.6 76 24.4 70 70 SSE 13 20 29.77 1008 10 16.09344 0 0
5:53 pm 17:53 Mostly Cloudy 86 30 76 24.4 72 72 SSE 12 19 29.85 1011 10 16.09344 0 0
6:07 pm 18:07 Partly Cloudy 87 30.6 77 25 72 72 SE 13 20 29.77 1008 10 16.09344 0 0
6:53 pm 18:53 Sunny 85 29.4 76 24.4 75 75 SE 14 22 29.85 1011 10 16.09344 0 0
7:53 pm 19:53 Sunny 84 28.9 77 25 80 80 SSE 7 11 29.85 1011 10 16.09344 0 0
8:53 pm 20:53 Clear 81 27.2 76 24.4 85 85 ESE 3 6 29.88 1012 10 16.09344 0 0
9:53 pm 21:53 Clear 79 26.1 76 24.4 90 90 ESE 6 9 29.88 1012 10 16.09344 0 0
10:53 pm 22:53 Clear 79 26.1 76 24.4 90 90 SE 6 9 29.88 1012 10 16.09344 0 0
11:53 pm 23:53 Clear 79 26.1 76 24.4 90 90 SSE 5 7 29.88 1012 10 16.09344 0 0

Powered by AerisWeather